Canby, MN

3:37 AM CST on November 18, 2019 (GMT -0600)
Canby

Weather History for KCNB - October, 2019

Change the Weather History Date:

Saturday, October 12, 2019

  Actual Average (KMML) Record (KMML)
Temperature  
Mean Temperature 34 °F -  
Max Temperature 37 °F 60 °F 84 °F (1956)
Min Temperature 32 °F 36 °F 18 °F (1979)
Degree Days  
Heating Degree Days 30    
Moisture  
Dew Point 29 °F    
Average Humidity 80    
Maximum Humidity 93    
Minimum Humidity 70    
Precipitation  
Precipitation 0.00 in - - ()
Sea Level Pressure  
Sea Level Pressure 29.68 in    
Wind  
Wind Speed 20 mph (West)    
Max Wind Speed 25 mph    
Max Gust Speed 36 mph    
Visibility 9 miles    
Events Snow    
Averages and records for this station are not official NWS values.
T = Trace of Precipitation, MM = Missing Value Source: NWS Daily Summary

Daily Weather History Graph

Daily Weather History Graph

Search for Another Location

Airport or City:

Astronomy

Oct. 12, 2019 Rise Set
Actual Time 7:36 AM CDT 6:45 PM CDT
Civil Twilight 7:07 AM CDT 7:15 PM CDT
Nautical Twilight 6:33 AM CDT 7:49 PM CDT
Astronomical Twilight 5:59 AM CDT 8:22 PM CDT
Moon 6:47 PM CDT (10/12) 6:08 AM CDT (10/12)
Length of Visible Light 12h 08m
Length of Day
11h 09m
Waxing Gibbous, 99% of the Moon is Illuminated
Oct 12
Waxing Gibbous
Oct 13
Full
Oct 21
Last Quarter
Oct 27
New
Nov 4
First Quarter

Hourly Weather History & Observations

Time (CDT) Temp. Windchill Dew Point Humidity Pressure Visibility Wind Dir Wind Speed Gust Speed Precip Events Conditions
12:02 AM 33.8 °F 22.2 °F 26.6 °F 75% 29.75 in 10.0 mi SW 20.7 mph 34.5 mph N/A   Overcast
12:22 AM 33.8 °F 21.3 °F 26.6 °F 75% 29.75 in 10.0 mi SW 24.2 mph 31.1 mph N/A   Overcast
12:42 AM 33.8 °F 21.9 °F 26.6 °F 75% 29.74 in 10.0 mi SW 21.9 mph 35.7 mph N/A   Overcast
1:02 AM 33.8 °F 22.2 °F 26.6 °F 75% 29.73 in 10.0 mi SW 20.7 mph 33.4 mph N/A   Mostly Cloudy
1:22 AM 33.8 °F 21.9 °F 26.6 °F 75% 29.73 in 10.0 mi SW 21.9 mph 31.1 mph N/A   Clear
1:42 AM 33.8 °F 23.5 °F 26.6 °F 75% 29.73 in 10.0 mi SW 16.1 mph 25.3 mph N/A   Clear
2:02 AM 33.8 °F 23.2 °F 26.6 °F 75% 29.72 in 10.0 mi SW 17.3 mph 31.1 mph N/A   Clear
2:22 AM 32.0 °F 19.8 °F 26.6 °F 80% 29.71 in 10.0 mi SW 20.7 mph 26.5 mph N/A   Clear
2:42 AM 32.0 °F 20.8 °F 26.6 °F 80% 29.71 in 10.0 mi SW 17.3 mph 29.9 mph N/A   Scattered Clouds
3:02 AM 33.8 °F 22.5 °F 26.6 °F 75% 29.70 in 10.0 mi SW 19.6 mph 27.6 mph N/A   Overcast
3:22 AM 33.8 °F 22.2 °F 26.6 °F 75% 29.70 in 10.0 mi SW 20.7 mph 27.6 mph N/A   Overcast
4:02 AM 32.0 °F 20.1 °F 28.4 °F 87% 29.69 in 7.0 mi SW 19.6 mph 26.5 mph N/A Snow Light Snow
4:22 AM 32.0 °F 21.2 °F 28.4 °F 87% 29.68 in 7.0 mi SW 16.1 mph 25.3 mph N/A Snow Light Snow
4:42 AM 32.0 °F 20.5 °F 28.4 °F 87% 29.67 in 10.0 mi SW 18.4 mph 25.3 mph N/A   Overcast
5:02 AM 33.8 °F 22.5 °F 28.4 °F 81% 29.66 in 10.0 mi SW 19.6 mph 27.6 mph N/A   Overcast
5:22 AM 33.8 °F 22.5 °F 28.4 °F 81% 29.66 in 7.0 mi SW 19.6 mph 25.3 mph N/A   Overcast
6:02 AM 33.8 °F 22.8 °F 28.4 °F 81% 29.65 in 10.0 mi SW 18.4 mph 27.6 mph N/A   Overcast
6:22 AM 33.8 °F 21.9 °F 28.4 °F 81% 29.65 in 7.0 mi SW 21.9 mph 32.2 mph N/A Snow Light Snow
6:42 AM 33.8 °F 22.2 °F 30.2 °F 87% 29.64 in 3.0 mi WSW 20.7 mph 31.1 mph N/A Snow Light Snow
7:02 AM 33.8 °F 22.5 °F 30.2 °F 87% 29.64 in 3.0 mi SW 19.6 mph 31.1 mph N/A Snow Light Snow
7:22 AM 33.8 °F 22.5 °F 30.2 °F 87% 29.64 in 4.0 mi SW 19.6 mph 28.8 mph N/A Snow Light Snow
7:42 AM 33.8 °F 23.9 °F 30.2 °F 87% 29.63 in 10.0 mi WSW 15.0 mph 26.5 mph N/A   Overcast
8:02 AM 33.8 °F 22.2 °F 30.2 °F 87% 29.63 in 3.0 mi WSW 20.7 mph 26.5 mph N/A Snow Light Snow
8:22 AM 33.8 °F 22.5 °F 30.2 °F 87% 29.63 in 4.0 mi SW 19.6 mph 28.8 mph N/A   Overcast
8:42 AM 33.8 °F 23.2 °F 30.2 °F 87% 29.62 in 10.0 mi WSW 17.3 mph 29.9 mph N/A   Mostly Cloudy
9:02 AM 33.8 °F 22.2 °F 30.2 °F 87% 29.61 in 10.0 mi WSW 20.7 mph 28.8 mph N/A   Mostly Cloudy
9:22 AM 33.8 °F 22.8 °F 30.2 °F 87% 29.60 in 10.0 mi WSW 18.4 mph 33.4 mph N/A   Overcast
9:42 AM 33.8 °F 21.3 °F 28.4 °F 81% 29.62 in 10.0 mi West 24.2 mph 34.5 mph N/A   Mostly Cloudy
10:02 AM 35.6 °F 24.0 °F 30.2 °F 81% 29.61 in 10.0 mi WSW 23.0 mph 32.2 mph N/A Snow Light Snow
10:23 AM 33.8 °F 22.2 °F 30.2 °F 87% 29.61 in 4.0 mi WSW 20.7 mph 32.2 mph N/A Snow Light Snow
10:42 AM 33.8 °F 21.9 °F 30.2 °F 87% 29.62 in 4.0 mi West 21.9 mph 28.8 mph N/A Snow Light Snow
11:02 AM 35.6 °F 25.2 °F 30.2 °F 81% 29.62 in 5.0 mi WSW 18.4 mph 28.8 mph N/A Snow Light Snow
11:23 AM 33.8 °F 22.8 °F 30.2 °F 87% 29.63 in 1.5 mi West 18.4 mph 25.3 mph N/A Snow Light Snow
11:42 AM 33.8 °F 23.9 °F 32.0 °F 93% 29.63 in 1.8 mi West 15.0 mph 26.5 mph N/A Snow Light Snow
12:02 PM 35.6 °F 25.5 °F 32.0 °F 87% 29.63 in 2.5 mi West 17.3 mph 26.5 mph N/A Snow Light Snow
12:22 PM 35.6 °F 24.8 °F 32.0 °F 87% 29.63 in 10.0 mi West 19.6 mph 27.6 mph N/A   Overcast
12:42 PM 35.6 °F 23.4 °F 32.0 °F 87% 29.63 in 10.0 mi NW 25.3 mph 33.4 mph N/A   Overcast
1:02 PM 37.4 °F 26.1 °F 32.0 °F 81% 29.63 in 10.0 mi WNW 24.2 mph 35.7 mph N/A   Overcast
1:22 PM 37.4 °F 26.9 °F 30.2 °F 75% 29.63 in 10.0 mi West 20.7 mph 34.5 mph N/A   Overcast
1:42 PM 37.4 °F 26.1 °F 30.2 °F 75% 29.63 in 10.0 mi WNW 24.2 mph 32.2 mph N/A   Overcast
2:02 PM 37.4 °F 27.2 °F 30.2 °F 75% 29.63 in 10.0 mi NW 19.6 mph 34.5 mph N/A   Overcast
2:22 PM 37.4 °F 26.1 °F 30.2 °F 75% 29.64 in 10.0 mi WNW 24.2 mph 33.4 mph N/A   Overcast
2:42 PM 35.6 °F 23.7 °F 30.2 °F 81% 29.65 in 10.0 mi WNW 24.2 mph 34.5 mph N/A   Overcast
3:02 PM 37.4 °F 26.6 °F 28.4 °F 70% 29.65 in 10.0 mi NW 21.9 mph 29.9 mph N/A   Overcast
3:22 PM 35.6 °F 24.5 °F 28.4 °F 75% 29.66 in 10.0 mi West 20.7 mph 29.9 mph N/A   Overcast
3:42 PM 35.6 °F 25.2 °F 28.4 °F 75% 29.66 in 10.0 mi WNW 18.4 mph 33.4 mph N/A   Overcast
4:02 PM 35.6 °F 24.0 °F 28.4 °F 75% 29.67 in 10.0 mi NW 23.0 mph 31.1 mph N/A   Overcast
4:22 PM 37.4 °F 26.1 °F 30.2 °F 75% 29.66 in 10.0 mi NW 24.2 mph 29.9 mph N/A   Overcast
4:42 PM 37.4 °F 26.6 °F 30.2 °F 75% 29.67 in 10.0 mi NW 21.9 mph 32.2 mph N/A   Overcast
5:02 PM 37.4 °F 26.9 °F 28.4 °F 70% 29.67 in 10.0 mi NW 20.7 mph 28.8 mph N/A   Overcast
5:22 PM 35.6 °F 24.2 °F 30.2 °F 81% 29.68 in 10.0 mi NW 21.9 mph 32.2 mph N/A   Overcast
5:42 PM 35.6 °F 24.2 °F 30.2 °F 81% 29.69 in 10.0 mi WNW 21.9 mph 28.8 mph N/A   Overcast
6:02 PM 35.6 °F 24.5 °F 30.2 °F 81% 29.69 in 10.0 mi NW 20.7 mph 27.6 mph N/A   Overcast
6:22 PM 35.6 °F 24.8 °F 30.2 °F 81% 29.69 in 10.0 mi NW 19.6 mph 28.8 mph N/A   Overcast
6:42 PM 35.6 °F 25.2 °F 28.4 °F 75% 29.70 in 10.0 mi NW 18.4 mph 31.1 mph N/A   Overcast
7:02 PM 35.6 °F 24.8 °F 28.4 °F 75% 29.70 in 10.0 mi NW 19.6 mph 25.3 mph N/A   Overcast
7:22 PM 35.6 °F 24.0 °F 28.4 °F 75% 29.71 in 10.0 mi NW 23.0 mph 26.5 mph N/A   Overcast
7:42 PM 35.6 °F 25.2 °F 28.4 °F 75% 29.72 in 10.0 mi NW 18.4 mph 31.1 mph N/A   Overcast
8:02 PM 35.6 °F 24.5 °F 28.4 °F 75% 29.73 in 10.0 mi NW 20.7 mph 28.8 mph N/A   Overcast
8:22 PM 35.6 °F 24.8 °F 28.4 °F 75% 29.73 in 10.0 mi NW 19.6 mph 25.3 mph N/A   Overcast
8:42 PM 35.6 °F 24.5 °F 28.4 °F 75% 29.74 in 10.0 mi NW 20.7 mph 26.5 mph N/A   Overcast
9:02 PM 35.6 °F 24.8 °F 28.4 °F 75% 29.74 in 10.0 mi NW 19.6 mph 26.5 mph N/A   Overcast
9:22 PM 35.6 °F 25.9 °F 28.4 °F 75% 29.73 in 10.0 mi NW 16.1 mph 27.6 mph N/A   Overcast
9:42 PM 35.6 °F 24.5 °F 28.4 °F 75% 29.73 in 10.0 mi NW 20.7 mph 25.3 mph N/A   Overcast
10:02 PM 35.6 °F 25.2 °F 30.2 °F 81% 29.73 in 10.0 mi NW 18.4 mph 27.6 mph N/A   Overcast
10:22 PM 35.6 °F 24.8 °F 30.2 °F 81% 29.73 in 10.0 mi NW 19.6 mph 23.0 mph N/A   Overcast
10:42 PM 35.6 °F 25.2 °F 30.2 °F 81% 29.73 in 10.0 mi NW 18.4 mph 25.3 mph N/A   Overcast
11:22 PM 35.6 °F 26.2 °F 28.4 °F 75% 29.73 in 10.0 mi NW 15.0 mph 23.0 mph N/A   Overcast
11:42 PM 35.6 °F 25.5 °F 28.4 °F 75% 29.73 in 10.0 mi NW 17.3 mph 24.2 mph N/A   Overcast